Torna al catalogo

SAPPHIRE

AttivoScienzaLEO
NORAD 26932·PAYLOAD·🇺🇸 United States

Lanciato Sep 30, 2001 da Kodiak Launch Complex

Loading…

Prossimi Passaggi (prossime 24 ore)

TLE

AggiornatoSource: Space-Track

Epoca: Sep 14, 2026, 07:28 UTC

1 26932U 01043D   26257.31117861  .00000019  00000-0  38387-4 0  9993
2 26932  67.0573  22.8419 0004266 260.4543  99.6077 14.31313658303144

Traccia SAPPHIRE in tempo reale con AllMySat

Download on the App Store